Hourly Data Report for September 22, 2015

IQALUIT CLIMATE
NUNAVUT

63°44'50.000" N
68°32'40.000" W
33.50 m
2402592
71321
XFB

Download Data

Hourly Data (September 2015)
Hourly Data Report for September 22, 2015
TIME
LST
Temp Definition
°C
Dew Point Definition
°C
Rel Hum Definition
%
Precip. Amount Definition
mm

Wind Dir Definition
10's deg

Wind Spd Definition
km/h
Visibility Definition
km
Stn Press Definition
kPa
Hmdx Definition


Wind Chill Definition


Weather Definition


00:00 1.3 -1.9 79 0.0 13 11   100.56     LegendNANA
01:00 1.4 -1.8 79 0.0 13 14   100.52     LegendNANA
02:00 0.5 -1.6 86 0.0 14 8   100.49     LegendNANA
03:00 0.5 -1.9 84 0.0 13 11   100.48     LegendNANA
04:00 0.5 -2.0 83 0.0 11 9   100.47     LegendNANA
05:00 0.4 -1.9 85 0.0 14 12   100.42     LegendNANA
06:00 1.3 -1.7 81 0.0 13 16   100.40     LegendNANA
07:00 1.5 -1.2 82 0.0 13 20   100.31     LegendNANA
08:00 0.8 -1.3 86 0.0 15 25   100.23     LegendNANA
09:00 1.9 -1.6 78 0.0 14 26   100.11     LegendNANA
10:00 2.5 -2.0 72 0.0 15 37   99.98     LegendNANA
11:00 1.4 -0.8 85 0.0 15 32   99.89     LegendNANA
12:00 1.3 0.4 94 1.2 13 37   99.71     LegendNANA
13:00 0.7 0.1 96 1.8 12 30   99.67     LegendNANA
14:00 0.6 0.3 98 1.6 13 33   99.59     LegendNANA
15:00 1.4 0.7 95 3.0 13 39   99.49     LegendNANA
16:00 1.8 0.7 92 0.4 13 49   99.42     LegendNANA
17:00 2.7 0.9 88 0.0 14 54   99.34     LegendNANA
18:00 2.9 0.7 86 0.0 13 41   99.37     LegendNANA
19:00 3.0 0.7 85 0.0 14 38   99.35     LegendNANA
20:00 2.4 0.9 90 0.0 15 32   99.29     LegendNANA
21:00 1.3 0.1 92 0.0 16 24   99.23     LegendNANA
22:00 1.0 0.1 93 0.2 15 31   99.17     LegendNANA
23:00 1.2 0.5 95 0.2 15 34   99.10     LegendNANA

Notes on Data Quality.

Legend

  • E = Estimated
  • M = Missing
  • NA = Not Available*
  • [empty] = Indicates an unobserved value
Date modified: